When you browse on this site, cookies collect data to enhance your experience and personalize the content and advertising you see.
Visit our Privacy Policy to learn more. By continuing to use the site, you agree to this use of cookies and data.
  • In Sweden
  • List of Countries
  • For 7 days
  • Water Temperature
  • Satellite Maps
  • Weather Map
  • Weather Widgets
  • user-avatar
    Login

    Hourly Weather Shiderty

    Today, 20 June, Thursday

    Time Temperature Precipitation Wind Pressure Humidity
    00:00 +16°C° 0 mm 2 mps 739 mmHg 61%
    01:00 +15°C° 0 mm 2 mps 739 mmHg 64%
    02:00 +14°C° 0 mm 2 mps 739 mmHg 67%
    03:00 +14°C° 0 mm 1 mps 740 mmHg 68%
    04:00 +14°C° 0 mm 1 mps 740 mmHg 69%
    05:00 +14°C° 0 mm 0 mps 741 mmHg 72%
    06:00 +16°C° 0 mm 1 mps 741 mmHg 66%
    07:00 +18°C° 0 mm 1 mps 741 mmHg 60%
    08:00 +19°C° 0 mm 1 mps 741 mmHg 54%
    09:00 +20°C° 0 mm 1 mps 741 mmHg 49%
    10:00 +21°C° 0 mm 1 mps 741 mmHg 45%
    11:00 +22°C° 0 mm 1 mps 741 mmHg 40%
    12:00 +23°C° 0 mm 1 mps 741 mmHg 38%
    13:00 +24°C° 0 mm 1 mps 741 mmHg 35%
    14:00 +24°C° 0 mm 1 mps 741 mmHg 32%
    15:00 +25°C° 0 mm 1 mps 740 mmHg 32%
    16:00 +25°C° 0 mm 1 mps 740 mmHg 32%
    17:00 +25°C° 0 mm 1 mps 740 mmHg 31%
    18:00 +24°C° 0 mm 1 mps 740 mmHg 35%
    19:00 +23°C° 0 mm 2 mps 740 mmHg 39%
    20:00 +21°C° 0 mm 2 mps 740 mmHg 42%
    21:00 +20°C° 0 mm 2 mps 740 mmHg 43%
    22:00 +20°C° 0 mm 3 mps 740 mmHg 43%
    23:00 +19°C° 0 mm 3 mps 740 mmHg 44%

    Tomorrow, 21 June, Friday

    Time Temperature Precipitation Wind Pressure Humidity
    00:00 +18°C° 0 mm 3 mps 740 mmHg 46%
    01:00 +18°C° 0 mm 3 mps 740 mmHg 49%
    02:00 +17°C° 0 mm 3 mps 739 mmHg 51%
    03:00 +17°C° 0 mm 3 mps 739 mmHg 52%
    04:00 +17°C° 0 mm 3 mps 739 mmHg 53%
    05:00 +17°C° 0 mm 3 mps 739 mmHg 55%
    06:00 +19°C° 0 mm 4 mps 739 mmHg 49%
    07:00 +21°C° 0 mm 4 mps 739 mmHg 44%
    08:00 +23°C° 0 mm 5 mps 739 mmHg 39%
    09:00 +25°C° 0 mm 5 mps 739 mmHg 37%
    10:00 +26°C° 0 mm 5 mps 738 mmHg 35%
    11:00 +27°C° 0 mm 5 mps 738 mmHg 33%
    12:00 +28°C° 0 mm 5 mps 738 mmHg 32%
    13:00 +29°C° 0 mm 4 mps 737 mmHg 31%
    14:00 +29°C° 0 mm 4 mps 737 mmHg 30%
    15:00 +30°C° 0 mm 4 mps 736 mmHg 29%
    16:00 +30°C° 0 mm 4 mps 736 mmHg 28%
    17:00 +30°C° 0 mm 3 mps 736 mmHg 28%
    18:00 +28°C° 0 mm 4 mps 735 mmHg 33%
    19:00 +27°C° 0 mm 5 mps 735 mmHg 39%
    20:00 +25°C° 0 mm 5 mps 735 mmHg 45%
    21:00 +23°C° 0 mm 5 mps 735 mmHg 48%
    22:00 +22°C° 0 mm 4 mps 735 mmHg 51%
    23:00 +22°C° 0 mm 3 mps 735 mmHg 54%

    Day after tomorrow, 22 June, Saturday

    Time Temperature Precipitation Wind Pressure Humidity
    00:00 +21°C° 0 mm 3 mps 735 mmHg 55%
    01:00 +20°C° 0 mm 3 mps 735 mmHg 56%
    02:00 +20°C° 0 mm 2 mps 735 mmHg 57%
    03:00 +19°C° 0 mm 3 mps 735 mmHg 58%
    04:00 +19°C° 0 mm 4 mps 735 mmHg 60%
    05:00 +18°C° 0 mm 4 mps 735 mmHg 62%
    06:00 +19°C° 0 mm 5 mps 736 mmHg 63%
    07:00 +20°C° 0 mm 5 mps 736 mmHg 64%
    08:00 +21°C° 0 mm 6 mps 736 mmHg 66%
    09:00 +21°C° 0 mm 6 mps 736 mmHg 62%
    10:00 +21°C° 0 mm 6 mps 737 mmHg 58%
    11:00 +22°C° 0 mm 6 mps 737 mmHg 54%
    12:00 +22°C° 0 mm 6 mps 737 mmHg 52%
    13:00 +22°C° 0 mm 7 mps 737 mmHg 50%
    14:00 +21°C° 0 mm 8 mps 738 mmHg 48%
    15:00 +21°C° 0 mm 8 mps 738 mmHg 47%
    16:00 +20°C° 0 mm 8 mps 738 mmHg 45%
    17:00 +19°C° 0 mm 9 mps 739 mmHg 44%
    18:00 +18°C° 0 mm 7 mps 739 mmHg 46%
    19:00 +17°C° 0 mm 6 mps 739 mmHg 48%
    20:00 +15°C° 0 mm 5 mps 740 mmHg 50%
    21:00 +15°C° 0 mm 5 mps 740 mmHg 53%
    22:00 +14°C° 0 mm 5 mps 741 mmHg 56%
    23:00 +13°C° 0 mm 5 mps 741 mmHg 59%

    23 June, Sunday

    Time Temperature Precipitation Wind Pressure Humidity
    00:00 +12°C° 0 mm 4 mps 741 mmHg 63%
    01:00 +11°C° 0 mm 4 mps 741 mmHg 66%
    02:00 +10°C° 0 mm 3 mps 741 mmHg 70%
    03:00 +10°C° 0 mm 3 mps 741 mmHg 70%
    04:00 +10°C° 0 mm 4 mps 741 mmHg 70%
    05:00 +10°C° 0 mm 4 mps 741 mmHg 70%
    06:00 +10°C° 0 mm 5 mps 742 mmHg 63%
    07:00 +13°C° 0 mm 5 mps 742 mmHg 56%
    08:00 +14°C° 0 mm 6 mps 742 mmHg 49%
    09:00 +15°C° 0 mm 6 mps 742 mmHg 46%
    10:00 +16°C° 0 mm 6 mps 742 mmHg 42%
    11:00 +16°C° 0 mm 6 mps 742 mmHg 38%
    12:00 +17°C° 0 mm 6 mps 742 mmHg 39%
    13:00 +17°C° 0 mm 6 mps 741 mmHg 39%
    14:00 +19°C° 0 mm 6 mps 741 mmHg 39%
    15:00 +19°C° 0 mm 6 mps 741 mmHg 40%
    16:00 +19°C° 0 mm 5 mps 741 mmHg 40%
    17:00 +19°C° 0 mm 5 mps 741 mmHg 41%
    18:00 +19°C° 0 mm 4 mps 741 mmHg 43%
    19:00 +18°C° 0 mm 3 mps 740 mmHg 46%
    20:00 +19°C° 0 mm 1 mps 740 mmHg 49%
    21:00 +18°C° 0 mm 2 mps 740 mmHg 49%
    22:00 +17°C° 0 mm 2 mps 740 mmHg 50%
    23:00 +17°C° 0 mm 3 mps 739 mmHg 51%

    24 June, Monday

    Time Temperature Precipitation Wind Pressure Humidity
    00:00 +17°C° 0 mm 4 mps 739 mmHg 52%
    01:00 +17°C° 0 mm 4 mps 738 mmHg 54%
    02:00 +17°C° 0 mm 5 mps 738 mmHg 56%
    03:00 +16°C° 1.2 mm 7 mps 737 mmHg 65%
    04:00 +15°C° 1.2 mm 8 mps 737 mmHg 75%
    05:00 +13°C° 1.2 mm 9 mps 736 mmHg 85%
    06:00 +16°C° 0.5 mm 9 mps 736 mmHg 85%
    07:00 +17°C° 0.5 mm 8 mps 736 mmHg 85%
    08:00 +18°C° 0.5 mm 8 mps 736 mmHg 85%
    09:00 +20°C° 0.2 mm 7 mps 736 mmHg 80%
    10:00 +21°C° 0.2 mm 7 mps 736 mmHg 76%
    11:00 +22°C° 0.2 mm 6 mps 736 mmHg 72%
    12:00 +23°C° 0.4 mm 6 mps 736 mmHg 68%
    13:00 +25°C° 0.4 mm 5 mps 736 mmHg 64%
    14:00 +26°C° 0.4 mm 5 mps 736 mmHg 60%
    15:00 +26°C° 0.2 mm 4 mps 736 mmHg 59%
    16:00 +26°C° 0.2 mm 4 mps 736 mmHg 58%
    17:00 +27°C° 0.2 mm 3 mps 736 mmHg 57%
    18:00 +26°C° 0 mm 2 mps 736 mmHg 62%
    19:00 +25°C° 0 mm 1 mps 736 mmHg 67%
    20:00 +24°C° 0 mm 1 mps 736 mmHg 72%
    21:00 +23°C° 0 mm 1 mps 736 mmHg 73%
    22:00 +23°C° 0 mm 1 mps 736 mmHg 74%
    23:00 +22°C° 0 mm 1 mps 736 mmHg 75%

    25 June, Tuesday

    Time Temperature Precipitation Wind Pressure Humidity
    00:00 +21°C° 0 mm 2 mps 736 mmHg 78%
    01:00 +20°C° 0 mm 2 mps 736 mmHg 80%
    02:00 +20°C° 0 mm 3 mps 736 mmHg 82%
    03:00 +20°C° 0.1 mm 3 mps 736 mmHg 82%
    04:00 +20°C° 0.1 mm 3 mps 736 mmHg 83%
    05:00 +20°C° 0.1 mm 3 mps 736 mmHg 83%
    06:00 +22°C° 0.9 mm 3 mps 736 mmHg 77%
    07:00 +23°C° 0.9 mm 4 mps 736 mmHg 72%
    08:00 +26°C° 0.9 mm 4 mps 736 mmHg 66%
    09:00 +27°C° 0.3 mm 4 mps 736 mmHg 60%
    10:00 +28°C° 0.3 mm 5 mps 736 mmHg 53%
    11:00 +29°C° 0.3 mm 5 mps 736 mmHg 47%
    12:00 +29°C° 0.1 mm 5 mps 736 mmHg 47%
    13:00 +29°C° 0.1 mm 6 mps 736 mmHg 47%
    14:00 +29°C° 0.1 mm 6 mps 736 mmHg 47%
    15:00 +28°C° 0 mm 6 mps 736 mmHg 46%
    16:00 +28°C° 0 mm 6 mps 737 mmHg 44%
    17:00 +28°C° 0 mm 6 mps 737 mmHg 42%
    18:00 +26°C° 0 mm 6 mps 737 mmHg 45%
    19:00 +24°C° 0 mm 6 mps 738 mmHg 48%
    20:00 +23°C° 0 mm 6 mps 738 mmHg 51%
    21:00 +21°C° 0 mm 5 mps 738 mmHg 54%
    22:00 +20°C° 0 mm 4 mps 739 mmHg 56%
    23:00 +19°C° 0 mm 3 mps 739 mmHg 58%
    Show more